Вернуться в каталог

STARLINK-1805

АктивенСвязьVLEO
NORAD 46705·PAYLOAD·🇺🇸 United States

Запущен Oct 18, 2020 с Cape Canaveral Space Force Station

Loading…

Ближайшие Пролёты (ближайшие 24 часа)

TLE

СвежийSource: CelesTrak SupGP

Эпоха: Sep 14, 2026, 21:53 UTC

1 46705C 20073AM  26257.91229167  .06177000  00000+0  14500-2 0  2572
2 46705  53.0233  22.1939 0011742 324.9882   1.3035 16.28719734    18

Отслеживайте STARLINK-1805 в реальном времени с AllMySat

Download on the App Store